FW8742 Weather Reports


time (UTC)temp
F
wind
direction
speed
knots
gust
knots
rain 1hr
in
rain 24hr
in
rain mn
in
humidity
%
barometer
mb
20260507223048 71 61 3.5 9.6 0.00 0.00 0.00 36 1012.8
20260507221555 70 301 1.7 12.2 0.00 0.00 0.00 36 1012.8
20260507220057 72 287 0.9 8.7 0.00 0.00 0.00 34 1013.0
20260507214608 71 16 3.5 9.6 0.00 0.00 0.00 36 1013.1
20260507213053 70 45 2.6 7.0 0.00 0.00 0.00 37 1013.4
20260507211559 69 353 1.7 6.1 0.00 0.00 0.00 37 1013.4
20260507210059 68 298 2.6 8.7 0.00 0.00 0.00 37 1013.5
20260507204551 70 262 2.6 7.0 0.00 0.00 0.00 36 1013.4
20260507203105 69 133 5.2 9.6 0.00 0.00 0.00 37 1013.6
20260507201559 69 302 1.7 8.7 0.00 0.00 0.00 37 1013.6
20260507200106 68 357 1.7 8.7 0.00 0.00 0.00 39 1013.9
20260507194546 67 358 0.9 7.8 0.00 0.00 0.00 40 1013.9
20260507193057 66 208 4.3 11.3 0.00 0.00 0.00 41 1013.7
20260507191555 67 314 1.7 7.0 0.00 0.00 0.00 40 1013.7
20260507190051 67 314 4.3 11.3 0.00 0.00 0.00 40 1013.7
20260507184556 67 208 1.7 9.6 0.00 0.00 0.00 42 1013.6
20260507183050 66 191 4.3 11.3 0.00 0.00 0.00 41 1013.7
20260507181548 64 0 4.3 9.6 0.00 0.00 0.00 48 1013.9
20260507180047 65 201 4.3 8.7 0.00 0.00 0.00 46 1014.3
20260507174550 63 245 3.5 9.6 0.00 0.00 0.00 45 1014.3
20260507173050 62 224 7.0 20.9 0.00 0.00 0.00 46 1014.6
20260507171554 62 240 1.7 10.4 0.00 0.00 0.00 48 1014.7
20260507170059 62 196 1.7 17.4 0.00 0.00 0.00 44 1014.5
20260507164600 63 230 6.1 10.4 0.00 0.00 0.00 43 1014.2
20260507163051 62 195 0.9 7.8 0.00 0.00 0.00 46 1014.3
20260507161550 62 199 2.6 7.8 0.00 0.00 0.00 46 1014.7
20260507160047 61 45 0.9 6.1 0.00 0.00 0.00 47 1014.6
20260507154553 59 0 1.7 3.5 0.00 0.00 0.00 51 1014.5
20260507153047 57 0 1.7 3.5 0.00 0.00 0.00 54 1014.6
20260507151550 55 209 0.0 1.7 0.00 0.00 0.00 63 1014.7
20260507150049 54 169 0.0 2.6 0.00 0.00 0.00 66 1014.7
20260507144548 53 169 0.9 2.6 0.00 0.00 0.00 70 1014.5
20260507143057 51 160 0.0 2.6 0.00 0.00 0.00 74 1014.6
20260507141553 50 0 0.9 2.6 0.00 0.00 0.00 76 1014.6
20260507140053 48 155 2.6 4.3 0.00 0.00 0.00 79 1014.5
20260507134603 46 182 0.0 2.6 0.00 0.00 0.00 82 1014.4
20260507133127 44 0 0.0 1.7 0.00 0.00 0.00 82 1014.3
20260507131552 43 204 1.7 3.5 0.00 0.00 0.00 83 1014.1
20260507130106 42 267 0.0 1.7 0.00 0.00 0.00 84 1014.1
20260507124547 42 230 1.7 2.6 0.00 0.00 0.00 82 1014.0
20260507123053 43 25 0.9 3.5 0.00 0.00 0.00 79 1013.8
20260507121605 44 53 0.0 3.5 0.00 0.00 0.00 80 1013.7
20260507120104 44 330 0.9 5.2 0.00 0.00 0.00 79 1013.5
20260507114632 43 334 0.9 2.6 0.00 0.00 0.00 83 1013.2
20260507113045 41 266 0.0 2.6 0.00 0.00 0.00 84 1013.0
20260507111544 41 187 0.0 4.3 0.00 0.00 0.00 86 1013.1
20260507110043 42 276 0.9 2.6 0.00 0.00 0.00 85 1013.0
20260507104548 41 217 0.9 2.6 0.00 0.00 0.00 85 1012.8
20260507103048 42 146 0.9 4.3 0.00 0.00 0.00 82 1012.8
20260507101547 43 0 0.0 3.5 0.00 0.00 0.00 82 1012.8
20260507100047 43 0 0.0 2.6 0.00 0.00 0.00 81 1012.8
20260507094545 44 0 1.7 3.5 0.00 0.00 0.00 80 1012.8
20260507093047 45 237 0.9 2.6 0.00 0.00 0.00 78 1012.8
20260507091546 46 216 0.9 3.5 0.00 0.00 0.00 75 1012.8
20260507090049 47 106 0.9 2.6 0.00 0.00 0.00 73 1012.8
20260507084555 47 0 0.9 3.5 0.00 0.00 0.00 73 1012.7
20260507083044 47 269 0.0 1.7 0.00 0.00 0.00 73 1012.5
20260507081552 48 285 1.7 4.3 0.00 0.00 0.00 72 1012.6
20260507080111 49 223 0.0 2.6 0.00 0.00 0.00 69 1012.8
20260507074548 50 0 0.0 1.7 0.00 0.00 0.00 67 1012.8
20260507073057 52 0 0.0 1.7 0.00 0.00 0.00 64 1012.7
20260507071549 54 291 0.0 2.6 0.00 0.00 0.00 61 1012.6
20260507070050 56 234 3.5 7.8 0.00 0.00 0.00 56 1012.6
20260507064549 54 231 4.3 8.7 0.00 0.00 0.00 62 1012.5
20260507063057 48 237 1.7 5.2 0.00 0.00 0.00 80 1012.5
20260507061554 48 168 1.7 3.5 0.00 0.00 0.00 79 1012.7
20260507060051 48 223 0.9 6.1 0.00 0.00 0.00 79 1012.8
20260507054554 49 58 1.7 5.2 0.00 0.00 0.00 75 1012.8
20260507053052 49 0 0.9 2.6 0.00 0.00 0.00 77 1012.6
20260507051552 50 0 0.0 2.6 0.00 0.00 0.00 75 1012.5
20260507050051 51 311 1.7 5.2 0.00 0.00 0.00 74 1012.4
20260507044551 51 137 0.9 4.3 0.00 0.00 0.00 73 1012.3
20260507043051 51 338 0.9 2.6 0.00 0.00 0.00 74 1012.4
20260507041553 52 269 1.7 3.5 0.00 0.00 0.00 75 1012.3
20260507040056 53 0 0.0 2.6 0.00 0.00 0.00 74 1012.4
20260507034549 54 0 0.9 3.5 0.00 0.00 0.00 72 1012.4
20260507033056 55 189 0.0 3.5 0.00 0.00 0.00 69 1012.3
20260507031555 56 216 0.9 3.5 0.00 0.00 0.00 67 1012.1
20260507030055 57 241 0.0 2.6 0.00 0.00 0.00 66 1012.1
20260507024604 58 97 0.9 2.6 0.00 0.00 0.00 65 1012.1
20260507023050 60 36 0.9 2.6 0.00 0.00 0.00 57 1012.1
20260507021553 60 0 0.9 2.6 0.00 0.00 0.00 59 1012.3
20260507020106 61 0 0.0 2.6 0.00 0.00 0.00 59 1011.9
20260507014552 62 249 0.0 1.7 0.00 0.00 0.00 58 1012.0
20260507013056 62 249 0.0 1.7 0.00 0.00 0.00 53 1012.1
20260507011553 63 249 0.0 1.7 0.00 0.00 0.00 54 1012.1
20260507010053 63 204 0.9 3.5 0.00 0.00 0.00 54 1012.1
20260507004554 63 209 0.0 1.7 0.00 0.00 0.00 53 1012.3
20260507003052 64 160 1.7 4.3 0.00 0.00 0.00 51 1012.5
20260507001551 64 0 0.0 2.6 0.00 0.00 0.00 50 1012.7
20260507000053 64 230 2.6 23.5 0.00 0.00 0.00 47 1013.2
20260506234552 68 221 3.5 10.4 0.00 0.00 0.00 38 1012.6
20260506233102 68 195 7.8 13.0 0.00 0.00 0.00 38 1011.9
20260506231556 69 209 8.7 14.8 0.00 0.00 0.00 38 1012.0
20260506230049 72 193 4.3 12.2 0.00 0.00 0.00 34 1011.9
20260506224551 73 43 1.7 16.5 0.00 0.00 0.00 33 1012.3